This demonstration page uses our WeatherBlox Daily Observations layout. Learn more.

41.55636, -103.73856

Hourly Observations for April 13, 2015

Temp ( °F °C ) Dew Point ( °F °C ) Humidity (%) Winds ( mph kmh ) Pressure ( in mb ) Visibility ( mi km ) Precip ( " mm )
12:53 am 00:53 Clear 34 1.1 25 -3.9 70 70 Calm 30.09 1019 10 16.0934 0 0
1:53 am 01:53 Clear 27 -2.8 22 -5.6 81 81 WSW 3 6 30.13 1020 10 16.0934 0 0
2:53 am 02:53 Clear 28 -2.2 23 -5 81 81 NE 3 6 30.12 1020 10 16.0934 0 0
3:53 am 03:53 Clear 27 -2.8 23 -5 85 85 SE 7 11 30.15 1021 10 16.0934 0 0
4:53 am 04:53 Clear 29 -1.7 24 -4.4 82 82 ENE 6 9 30.17 1022 10 16.0934 0 0
5:53 am 05:53 Clear 27 -2.8 23 -5 85 85 W 3 6 30.19 1023 10 16.0934 0 0
6:53 am 06:53 Sunny 27 -2.8 24 -4.4 89 89 NW 5 7 30.23 1024 10 16.0934 0 0
7:53 am 07:53 Sunny 34 1.1 28 -2.2 79 79 Calm 30.26 1025 10 16.0934 0 0
8:53 am 08:53 Sunny 41 5 29 -1.7 62 62 SSE 3 6 30.26 1025 10 16.0934 0 0
9:53 am 09:53 Sunny 51 10.6 32 0 48 48 SW 5 7 30.24 1024 10 16.0934 0 0
10:53 am 10:53 Sunny 57 13.9 26 -3.3 30 30 VRB 5 7 30.22 1023 10 16.0934 0 0
11:53 am 11:53 Sunny 62 16.7 25 -3.9 24 24 WNW 8 13 30.19 1022 10 16.0934 0 0
12:53 pm 12:53 Sunny 64 17.8 24 -4.4 22 22 VRB 6 9 30.16 1022 10 16.0934 0 0
1:53 pm 13:53 Sunny 66 18.9 24 -4.4 20 20 VRB 6 9 30.15 1021 10 16.0934 0 0
2:53 pm 14:53 Sunny 68 20 24 -4.4 19 19 NW 7 11 30.12 1020 10 16.0934 0 0
3:53 pm 15:53 Sunny 70 21.1 24 -4.4 18 18 VRB 3 6 30.09 1019 10 16.0934 0 0
4:53 pm 16:53 Sunny 70 21.1 24 -4.4 18 18 Calm 30.07 1018 10 16.0934 0 0
5:53 pm 17:53 Sunny 68 20 24 -4.4 19 19 Calm 30.07 1018 10 16.0934 0 0
6:53 pm 18:53 Sunny 65 18.3 31 -0.6 28 28 ESE 7 11 30.08 1019 10 16.0934 0 0
7:53 pm 19:53 Clear 57 13.9 33 0.6 41 41 ESE 10 17 30.08 1019 10 16.0934 0 0
8:53 pm 20:53 Clear 55 12.8 31 -0.6 40 40 SE 8 13 30.09 1019 10 16.0934 0 0
9:53 pm 21:53 Clear 48 8.9 31 -0.6 52 52 ESE 9 15 30.08 1019 10 16.0934 0 0
10:53 pm 22:53 Clear 52 11.1 27 -2.8 38 38 ESE 10 17 30.05 1018 10 16.0934 0 0
11:53 pm 23:53 Clear 53 11.7 24 -4.4 32 32 ESE 13 20 30.02 1017 10 16.0934 0 0

Powered by AerisWeather